Location: Ellingshausen
(50.5460°N, 10.4723°E)
Time: 00:56:56
(UTC+00:00)

Cosmos 2228 Rocket - Pass Details

Date: 18 January 2026
Orbit: 612 x 647 km, 82.5° (Epoch: 18 February)

Event Time Altitude Azimuth Distance (km) Brightness Sun altitude
Exits shadow 05:05:51 - 353° (N) 2,699 6.2 -19.2°
Reaches altitude 10° 05:07:37 10° 356° (N) 1,988 5.5 -19.0°
Maximum altitude 05:11:58 60° 77° (ENE) 705 3.6 -18.3°
Drops below altitude 10° 05:16:16 10° 158° (SSE) 1,966 6.1 -17.6°
Sets 05:18:30 0° 162° (SSE) 2,866 6.9 -17.3°
